SWA2886 KSFO-KLAX

Flight info

Callsign SWA2886
Flight time 0h 56m
Altitude 37000
Route WESLA5 SUSEY EBAYE BURGL IRNMN2
Aircraft B38M/M-SADE2E3GHIJ4J7P2RWZ/LB1D1

Departure

Time 2026-04-24 05:57
Airport San Francisco International Airport (KSFO)

Arrival

Time 2026-04-24 06:53
Airport Los Angeles International Airport (KLAX)
Time Latitude Longitude Altitude Speed Heading
2026-04-24 05:33 37.61657 -122.38126 23 ft 0 kts
2026-04-24 05:47 37.61644 -122.38126 27 ft 4 kts
2026-04-24 05:47 37.61626 -122.38126 24 ft 4 kts
2026-04-24 05:47 37.61618 -122.38128 24 ft 4 kts 27°
2026-04-24 05:47 37.61608 -122.38147 25 ft 4 kts 102°
2026-04-24 05:48 37.61610 -122.38157 25 ft 4 kts 118°
2026-04-24 05:48 37.61597 -122.38127 25 ft 4 kts 118°
2026-04-24 05:48 37.61587 -122.38102 24 ft 1 kts 118°
2026-04-24 05:51 37.61585 -122.38097 24 ft 3 kts 118°
2026-04-24 05:51 37.61557 -122.38053 23 ft 9 kts 153°
2026-04-24 05:52 37.61489 -122.38079 23 ft 12 kts 209°
2026-04-24 05:52 37.61411 -122.38093 24 ft 10 kts 140°
2026-04-24 05:52 37.61371 -122.38009 26 ft 13 kts 118°
2026-04-24 05:52 37.61326 -122.37900 25 ft 15 kts 118°
2026-04-24 05:53 37.61269 -122.37763 25 ft 20 kts 118°
2026-04-24 05:53 37.61229 -122.37584 23 ft 23 kts 83°
2026-04-24 05:53 37.61338 -122.37442 23 ft 24 kts 28°
2026-04-24 05:53 37.61466 -122.37358 23 ft 19 kts 27°
2026-04-24 05:54 37.61555 -122.37236 24 ft 20 kts 73°
2026-04-24 05:54 37.61529 -122.37059 23 ft 22 kts 118°
2026-04-24 05:54 37.61448 -122.36895 23 ft 23 kts 133°
2026-04-24 05:54 37.61344 -122.36730 26 ft 25 kts 117°
2026-04-24 05:55 37.61258 -122.36524 23 ft 28 kts 118°
2026-04-24 05:55 37.61170 -122.36315 26 ft 27 kts 117°
2026-04-24 05:55 37.61090 -122.36125 26 ft 15 kts 118°
2026-04-24 05:55 37.61051 -122.36013 23 ft 14 kts 99°
2026-04-24 05:56 37.61083 -122.35915 24 ft 10 kts 35°
2026-04-24 05:56 37.61157 -122.35874 23 ft 14 kts
2026-04-24 05:56 37.61240 -122.36000 26 ft 38 kts 297°
2026-04-24 05:56 37.61487 -122.36590 25 ft 111 kts 297°
2026-04-24 05:57 37.61937 -122.37641 144 ft 155 kts 300°
2026-04-24 05:57 37.62428 -122.38867 955 ft 159 kts 296°
2026-04-24 05:57 37.62947 -122.40146 1607 ft 172 kts 297°
2026-04-24 05:57 37.63559 -122.41554 2074 ft 196 kts 298°
2026-04-24 05:58 37.64253 -122.43134 2653 ft 216 kts 298°
2026-04-24 05:58 37.65000 -122.44832 3443 ft 225 kts 298°
2026-04-24 05:58 37.65790 -122.46599 4169 ft 239 kts 299°
2026-04-24 05:58 37.66601 -122.48489 4891 ft 252 kts 293°
2026-04-24 05:59 37.66931 -122.50722 5433 ft 271 kts 263°
2026-04-24 05:59 37.66211 -122.52904 6284 ft 273 kts 230°
2026-04-24 05:59 37.64699 -122.54347 7086 ft 278 kts 200°
2026-04-24 05:59 37.62795 -122.54600 7962 ft 279 kts 168°
2026-04-24 06:00 37.61008 -122.53650 8775 ft 283 kts 150°
2026-04-24 06:00 37.59197 -122.52631 9596 ft 288 kts 158°
2026-04-24 06:00 37.57310 -122.51709 9971 ft 292 kts 158°
2026-04-24 06:00 37.55424 -122.50763 10020 ft 291 kts 157°
2026-04-24 06:01 37.53543 -122.49806 10014 ft 291 kts 157°
2026-04-24 06:01 37.51696 -122.48858 10021 ft 291 kts 157°
2026-04-24 06:01 37.49798 -122.47838 10219 ft 303 kts 151°
2026-04-24 06:01 37.48118 -122.46149 10593 ft 320 kts 133°
2026-04-24 06:02 37.46546 -122.44061 11055 ft 335 kts 133°
2026-04-24 06:02 37.44926 -122.41896 11746 ft 341 kts 132°
2026-04-24 06:02 37.43302 -122.39706 12604 ft 344 kts 132°
2026-04-24 06:02 37.41661 -122.37483 13412 ft 349 kts 132°
2026-04-24 06:03 37.39999 -122.35228 14225 ft 353 kts 132°
2026-04-24 06:03 37.38320 -122.32950 14995 ft 357 kts 133°
2026-04-24 06:03 37.36619 -122.30641 15780 ft 361 kts 133°
2026-04-24 06:03 37.34899 -122.28308 16546 ft 366 kts 133°
2026-04-24 06:04 37.33162 -122.25953 17297 ft 370 kts 133°
2026-04-24 06:04 37.31424 -122.23598 18024 ft 374 kts 134°
2026-04-24 06:04 37.29638 -122.21180 18603 ft 382 kts 134°
2026-04-24 06:04 37.27832 -122.18736 18801 ft 383 kts 134°
2026-04-24 06:05 37.26023 -122.16292 19435 ft 384 kts 134°
2026-04-24 06:05 37.24188 -122.13814 20000 ft 390 kts 134°
2026-04-24 06:05 37.22326 -122.11301 20613 ft 394 kts 135°
2026-04-24 06:05 37.20440 -122.08759 21198 ft 399 kts 135°
2026-04-24 06:06 37.18529 -122.06182 21784 ft 404 kts 135°
2026-04-24 06:06 37.16600 -122.03586 22359 ft 409 kts 135°
2026-04-24 06:06 37.14654 -122.00967 22919 ft 413 kts 136°
2026-04-24 06:06 37.12684 -121.98319 23477 ft 418 kts 136°
2026-04-24 06:07 37.10689 -121.95639 23956 ft 423 kts 136°
2026-04-24 06:07 37.08699 -121.92968 24434 ft 426 kts 136°
2026-04-24 06:07 37.06670 -121.90248 24918 ft 429 kts 136°
2026-04-24 06:07 37.04626 -121.87509 25384 ft 432 kts 136°
2026-04-24 06:08 37.02567 -121.84751 25841 ft 435 kts 136°
2026-04-24 06:08 37.00487 -121.81970 26288 ft 438 kts 136°
2026-04-24 06:08 36.98395 -121.79175 26728 ft 442 kts 136°
2026-04-24 06:08 36.96284 -121.76356 27166 ft 445 kts 136°
2026-04-24 06:09 36.94160 -121.73523 27599 ft 448 kts 136°
2026-04-24 06:09 36.92017 -121.70667 28015 ft 451 kts 136°
2026-04-24 06:09 36.89861 -121.67795 28430 ft 455 kts 136°
2026-04-24 06:09 36.87690 -121.64903 28834 ft 458 kts 136°
2026-04-24 06:10 36.85501 -121.61993 29228 ft 461 kts 136°
2026-04-24 06:10 36.83292 -121.59062 29625 ft 464 kts 136°
2026-04-24 06:10 36.81073 -121.56119 30023 ft 467 kts 136°
2026-04-24 06:11 36.76624 -121.50224 30715 ft 472 kts 137°
2026-04-24 06:11 36.74366 -121.47236 31092 ft 473 kts 137°
2026-04-24 06:11 36.72100 -121.44240 31453 ft 475 kts 137°
2026-04-24 06:11 36.69824 -121.41235 31807 ft 477 kts 137°
2026-04-24 06:12 36.68284 -121.39201 32044 ft 478 kts 137°
2026-04-24 06:12 36.66023 -121.36220 32386 ft 480 kts 137°
2026-04-24 06:12 36.63724 -121.33191 32857 ft 478 kts 137°
2026-04-24 06:12 36.61442 -121.30187 33384 ft 476 kts 137°
2026-04-24 06:13 36.59164 -121.27191 33887 ft 474 kts 137°
2026-04-24 06:13 36.56894 -121.24209 34331 ft 473 kts 137°
2026-04-24 06:13 36.54634 -121.21242 34665 ft 473 kts 137°
2026-04-24 06:13 36.52369 -121.18270 34970 ft 474 kts 137°
2026-04-24 06:14 36.50093 -121.15287 35255 ft 476 kts 137°
2026-04-24 06:14 36.47841 -121.12337 35540 ft 477 kts 138°
2026-04-24 06:14 36.45557 -121.09348 35830 ft 478 kts 138°
2026-04-24 06:14 36.43290 -121.06313 36102 ft 480 kts 134°
2026-04-24 06:15 36.41125 -121.03149 36366 ft 481 kts 135°
2026-04-24 06:15 36.38947 -120.99998 36628 ft 482 kts 135°
2026-04-24 06:15 36.36750 -120.96842 36909 ft 482 kts 135°
2026-04-24 06:15 36.34554 -120.93693 37093 ft 484 kts 135°
2026-04-24 06:16 36.32346 -120.90531 37105 ft 485 kts 135°
2026-04-24 06:16 36.27942 -120.84232 37088 ft 483 kts 136°
2026-04-24 06:17 36.23530 -120.77935 37093 ft 484 kts 136°
2026-04-24 06:17 36.19111 -120.71639 37084 ft 484 kts 136°
2026-04-24 06:18 36.14709 -120.65379 37092 ft 485 kts 136°
2026-04-24 06:18 36.10277 -120.59089 37099 ft 486 kts 136°
2026-04-24 06:19 36.05833 -120.52793 37072 ft 485 kts 136°
2026-04-24 06:19 36.01380 -120.46495 37071 ft 486 kts 136°
2026-04-24 06:20 35.96926 -120.40209 37085 ft 487 kts 136°
2026-04-24 06:20 35.92449 -120.33902 37073 ft 488 kts 136°
2026-04-24 06:21 35.87955 -120.27619 37067 ft 486 kts 140°
2026-04-24 06:21 35.85400 -120.25082 37071 ft 472 kts 155°
2026-04-24 06:21 35.82605 -120.22931 37062 ft 474 kts 154°
2026-04-24 06:22 35.77009 -120.18619 37064 ft 475 kts 155°
2026-04-24 06:22 35.71370 -120.14361 37066 ft 475 kts 155°
2026-04-24 06:23 35.65733 -120.10112 37059 ft 475 kts 155°
2026-04-24 06:23 35.60095 -120.05855 37061 ft 476 kts 155°
2026-04-24 06:24 35.54479 -120.01623 37053 ft 476 kts 156°
2026-04-24 06:24 35.48832 -119.97375 37060 ft 477 kts 156°
2026-04-24 06:25 35.43170 -119.93122 37055 ft 477 kts 156°
2026-04-24 06:25 35.37502 -119.88871 36938 ft 478 kts 156°
2026-04-24 06:25 35.34671 -119.86750 36566 ft 474 kts 156°
2026-04-24 06:26 35.31863 -119.84649 36164 ft 473 kts 156°
2026-04-24 06:26 35.29062 -119.82511 35761 ft 476 kts 151°
2026-04-24 06:26 35.26398 -119.80075 35322 ft 479 kts 149°
2026-04-24 06:26 35.23743 -119.77606 34839 ft 480 kts 149°
2026-04-24 06:27 35.21084 -119.75123 34388 ft 481 kts 148°
2026-04-24 06:27 35.18421 -119.72636 33908 ft 482 kts 148°
2026-04-24 06:27 35.15754 -119.70148 33381 ft 482 kts 148°
2026-04-24 06:27 35.13075 -119.67649 32864 ft 483 kts 148°
2026-04-24 06:28 35.10398 -119.65155 32355 ft 484 kts 148°
2026-04-24 06:28 35.07754 -119.62694 31865 ft 484 kts 148°
2026-04-24 06:28 35.05076 -119.60203 31392 ft 484 kts 147°
2026-04-24 06:28 35.02398 -119.57714 30896 ft 484 kts 147°
2026-04-24 06:29 34.99727 -119.55233 30375 ft 480 kts 147°
2026-04-24 06:29 34.97069 -119.52768 29768 ft 478 kts 147°
2026-04-24 06:29 34.94424 -119.50316 29129 ft 478 kts 147°
2026-04-24 06:29 34.91766 -119.47869 28497 ft 479 kts 148°
2026-04-24 06:30 34.89077 -119.45462 27874 ft 480 kts 148°
2026-04-24 06:30 34.86377 -119.43042 27272 ft 481 kts 148°
2026-04-24 06:30 34.83681 -119.40623 26679 ft 482 kts 148°
2026-04-24 06:30 34.80970 -119.38192 26100 ft 484 kts 148°
2026-04-24 06:31 34.78258 -119.35762 25538 ft 484 kts 148°
2026-04-24 06:31 34.75553 -119.33343 24990 ft 482 kts 148°
2026-04-24 06:31 34.72842 -119.30967 24420 ft 475 kts 148°
2026-04-24 06:31 34.70173 -119.28632 23864 ft 469 kts 148°
2026-04-24 06:32 34.67568 -119.26351 23277 ft 463 kts 148°
2026-04-24 06:32 34.64967 -119.24084 22693 ft 458 kts 148°
2026-04-24 06:32 34.62356 -119.21832 22129 ft 461 kts 148°
2026-04-24 06:32 34.59734 -119.19569 21589 ft 463 kts 148°
2026-04-24 06:33 34.57119 -119.17311 21055 ft 456 kts 148°
2026-04-24 06:33 34.54579 -119.15066 20498 ft 450 kts 147°
2026-04-24 06:33 34.52061 -119.12836 19938 ft 445 kts 148°
2026-04-24 06:33 34.49569 -119.10635 19388 ft 441 kts 148°
2026-04-24 06:34 34.47101 -119.08457 18847 ft 437 kts 148°
2026-04-24 06:34 34.44646 -119.06295 18309 ft 434 kts 148°
2026-04-24 06:34 34.42206 -119.04176 17708 ft 430 kts 148°
2026-04-24 06:34 34.39776 -119.02069 17057 ft 428 kts 148°
2026-04-24 06:35 34.37364 -118.99976 16463 ft 425 kts 148°
2026-04-24 06:35 34.34970 -118.97900 15893 ft 421 kts 147°
2026-04-24 06:35 34.32656 -118.95813 15339 ft 419 kts 146°
2026-04-24 06:35 34.30334 -118.93708 14794 ft 416 kts 146°
2026-04-24 06:36 34.28024 -118.91620 14250 ft 413 kts 146°
2026-04-24 06:36 34.25733 -118.89549 13718 ft 410 kts 145°
2026-04-24 06:36 34.23472 -118.87469 13179 ft 406 kts 145°
2026-04-24 06:36 34.21557 -118.85711 13036 ft 394 kts 145°
2026-04-24 06:37 34.19417 -118.83748 13034 ft 377 kts 145°
2026-04-24 06:37 34.17356 -118.81859 12899 ft 366 kts 145°
2026-04-24 06:37 34.15449 -118.79918 12641 ft 360 kts 140°
2026-04-24 06:37 34.13621 -118.77897 12395 ft 353 kts 140°
2026-04-24 06:38 34.11827 -118.75939 12105 ft 342 kts 140°
2026-04-24 06:38 34.10081 -118.74046 11748 ft 334 kts 140°
2026-04-24 06:38 34.08374 -118.72203 11381 ft 327 kts 140°
2026-04-24 06:38 34.06694 -118.70394 11002 ft 320 kts 140°
2026-04-24 06:39 34.05052 -118.68626 10638 ft 314 kts 140°
2026-04-24 06:39 34.03549 -118.66760 10323 ft 309 kts 124°
2026-04-24 06:39 34.02781 -118.64394 10013 ft 303 kts 99°
2026-04-24 06:39 34.02550 -118.61897 9695 ft 297 kts 97°
2026-04-24 06:40 34.02316 -118.59438 9353 ft 293 kts 97°
2026-04-24 06:40 34.02083 -118.56993 8980 ft 293 kts 97°
2026-04-24 06:40 34.01854 -118.54561 8641 ft 292 kts 97°
2026-04-24 06:40 34.01624 -118.52125 8305 ft 291 kts 97°
2026-04-24 06:41 34.01396 -118.49709 8024 ft 289 kts 97°
2026-04-24 06:41 34.01171 -118.47330 7769 ft 282 kts 97°
2026-04-24 06:41 34.01116 -118.44999 7485 ft 277 kts 81°
2026-04-24 06:41 34.01511 -118.42752 7215 ft 271 kts 78°
2026-04-24 06:42 34.01893 -118.40583 6884 ft 264 kts 78°
2026-04-24 06:42 34.02265 -118.38449 6575 ft 256 kts 78°
2026-04-24 06:42 34.02622 -118.36380 6288 ft 248 kts 78°
2026-04-24 06:42 34.02867 -118.34348 6092 ft 242 kts 83°
2026-04-24 06:43 34.03070 -118.32370 6034 ft 235 kts 83°
2026-04-24 06:43 34.03276 -118.30414 6016 ft 235 kts 83°
2026-04-24 06:43 34.03487 -118.28478 5835 ft 233 kts 82°
2026-04-24 06:43 34.03700 -118.26531 5523 ft 235 kts 82°
2026-04-24 06:44 34.03915 -118.24572 5258 ft 235 kts 82°
2026-04-24 06:44 34.04129 -118.22618 4986 ft 235 kts 82°
2026-04-24 06:44 34.04340 -118.20668 4711 ft 235 kts 82°
2026-04-24 06:44 34.04548 -118.18726 4477 ft 232 kts 82°
2026-04-24 06:45 34.04753 -118.16806 4263 ft 230 kts 82°
2026-04-24 06:45 34.04955 -118.14901 4077 ft 230 kts 82°
2026-04-24 06:45 34.05158 -118.12989 3990 ft 228 kts 82°
2026-04-24 06:45 34.05353 -118.11114 3979 ft 228 kts 85°
2026-04-24 06:46 34.05111 -118.09229 3960 ft 226 kts 117°
2026-04-24 06:46 34.04105 -118.07847 3971 ft 225 kts 149°
2026-04-24 06:46 34.02634 -118.07222 3994 ft 226 kts 170°
2026-04-24 06:46 34.01076 -118.07037 3985 ft 225 kts 189°
2026-04-24 06:47 33.99671 -118.07762 3972 ft 221 kts 221°
2026-04-24 06:47 33.98693 -118.09172 4032 ft 221 kts 244°
2026-04-24 06:47 33.98233 -118.10938 4029 ft 222 kts 260°
2026-04-24 06:47 33.98015 -118.12777 4008 ft 222 kts 263°
2026-04-24 06:48 33.97832 -118.14607 3987 ft 215 kts 263°
2026-04-24 06:48 33.97656 -118.16343 3951 ft 204 kts 263°
2026-04-24 06:48 33.97485 -118.18029 3725 ft 201 kts 263°
2026-04-24 06:48 33.97315 -118.19688 3462 ft 197 kts 263°
2026-04-24 06:49 33.97148 -118.21311 3205 ft 193 kts 263°
2026-04-24 06:49 33.96985 -118.22903 2951 ft 189 kts 263°
2026-04-24 06:49 33.96828 -118.24433 2707 ft 181 kts 263°
2026-04-24 06:49 33.96676 -118.25924 2468 ft 179 kts 263°
2026-04-24 06:50 33.96523 -118.27408 2234 ft 176 kts 263°
2026-04-24 06:50 33.96375 -118.28850 2000 ft 167 kts 263°
2026-04-24 06:50 33.96240 -118.30169 1826 ft 154 kts 263°
2026-04-24 06:50 33.96112 -118.31423 1604 ft 151 kts 263°
2026-04-24 06:51 33.95983 -118.32679 1396 ft 151 kts 263°
2026-04-24 06:51 33.95867 -118.33949 1183 ft 153 kts 263°
2026-04-24 06:51 33.95728 -118.35209 969 ft 149 kts 260°
2026-04-24 06:51 33.95593 -118.36432 752 ft 147 kts 262°
2026-04-24 06:52 33.95465 -118.37648 571 ft 145 kts 261°
2026-04-24 06:52 33.95347 -118.38848 347 ft 146 kts 260°
2026-04-24 06:52 33.95222 -118.40070 169 ft 145 kts 262°
2026-04-24 06:52 33.95104 -118.41225 108 ft 121 kts 263°
2026-04-24 06:53 33.95033 -118.41952 110 ft 55 kts 263°
2026-04-24 06:53 33.94947 -118.42192 106 ft 25 kts 228°
2026-04-24 06:53 33.94809 -118.42282 109 ft 22 kts 183°
2026-04-24 06:53 33.94695 -118.42256 101 ft 15 kts 134°
2026-04-24 06:54 33.94693 -118.42126 102 ft 18 kts 85°
2026-04-24 06:54 33.94712 -118.41940 101 ft 27 kts 83°
2026-04-24 06:54 33.94736 -118.41704 100 ft 30 kts 82°
2026-04-24 06:54 33.94763 -118.41452 101 ft 31 kts 78°
2026-04-24 06:55 33.94802 -118.41188 102 ft 33 kts 83°
2026-04-24 06:55 33.94829 -118.40930 103 ft 31 kts 83°
2026-04-24 06:55 33.94856 -118.40666 102 ft 32 kts 84°
2026-04-24 06:55 33.94884 -118.40397 102 ft 33 kts 83°
2026-04-24 06:56 33.94908 -118.40166 102 ft 22 kts 82°
2026-04-24 06:56 33.94857 -118.40064 100 ft 15 kts 137°
2026-04-24 06:56 33.94780 -118.40004 99 ft 12 kts 188°
2026-04-24 06:56 33.94716 -118.40012 99 ft 4 kts 180°
2026-04-24 06:57 33.94698 -118.40020 97 ft 1 kts 234°
2026-04-24 06:57 33.94695 -118.40033 99 ft 3 kts 256°
2026-04-24 06:57 33.94693 -118.40048 97 ft 2 kts 264°
2026-04-24 06:57 33.94692 -118.40061 99 ft 0 kts 264°